www.pogodaiklimat.ru
Время
(UTC), дата
01 20.01
02 20.01
03 20.01
04 20.01
05 20.01
06 20.01
07 20.01
08 20.01
09 20.01
10 20.01
11 20.01
12 20.01
13 20.01
14 20.01
15 20.01
16 20.01
17 20.01
18 20.01
19 20.01
20 20.01
21 20.01
22 20.01
23 20.01
00 21.01
01 21.01
02 21.01
03 21.01
04 21.01
05 21.01
06 21.01
07 21.01
08 21.01
09 21.01
10 21.01
11 21.01
12 21.01
13 21.01
14 21.01
15 21.01
16 21.01
17 21.01
18 21.01
19 21.01
20 21.01
21 21.01
22 21.01
23 21.01
00 22.01
01 22.01
02 22.01
03 22.01
04 22.01
05 22.01
06 22.01
07 22.01
08 22.01
09 22.01
10 22.01
11 22.01
12 22.01
13 22.01
14 22.01
15 22.01
16 22.01
17 22.01
18 22.01
19 22.01
20 22.01
21 22.01
22 22.01
23 22.01
00 23.01
01 23.01
02 23.01
03 23.01
04 23.01
05 23.01
06 23.01
07 23.01
08 23.01
09 23.01
10 23.01
11 23.01
12 23.01
13 23.01
14 23.01
15 23.01
16 23.01
17 23.01
18 23.01
19 23.01
20 23.01
21 23.01
22 23.01
23 23.01
00 24.01
01 24.01
02 24.01
03 24.01
04 24.01
05 24.01
06 24.01
07 24.01
08 24.01
09 24.01
10 24.01
11 24.01
12 24.01
13 24.01
14 24.01
15 24.01
16 24.01
17 24.01
18 24.01
19 24.01
20 24.01
21 24.01
22 24.01
23 24.01
00 25.01
01 25.01
02 25.01
03 25.01
04 25.01
05 25.01
06 25.01
07 25.01
08 25.01
09 25.01
10 25.01
11 25.01
12 25.01
13 25.01
14 25.01
15 25.01
16 25.01
17 25.01
18 25.01
19 25.01
20 25.01
21 25.01
22 25.01
23 25.01
00 26.01
01 26.01
02 26.01
03 26.01
04 26.01
05 26.01
06 26.01
07 26.01
08 26.01
09 26.01
10 26.01
11 26.01
12 26.01
13 26.01
14 26.01
15 26.01
16 26.01
17 26.01
18 26.01
19 26.01
20 26.01
21 26.01
22 26.01
00 27.01
Ветер
(напр.,м/с)
Видим. Явления Облачность Т
(С)
Тd
(С)
f
(%)
Тe
(С)
Тes
(С)
Комфортность P
(гПа)
Po
(гПа)
Тmin
(С)
Tmax
(С)
R
(мм)
R24
(мм)
S
(см)
Ю 9-15
{15}
8000 м в посл. час дождь н/о +10.2 +9.1 93 +6 +6 тепло 995.1 992.1
ЮЗ 9
{15}
15 км слаб. морось с дождем н/о +10.3 +9.1 92 +6 +6 тепло 994.4 991.4
ЮЗ 9
{14}
16 км в посл. час дождь н/о +10.2 +8.9 92 +6 +6 тепло 993.5 990.5
Ю 9
{14}
24 км в посл. час дождь н/о +10.3 +9.1 92 +6 +6 тепло 993.1 990.1
Ю 8
{15}
9000 м слаб. морось с дождем н/о +10.1 +9.0 93 +6 +6 тепло 992.4 989.4
Ю 9
{13}
14 км в посл. час дождь н/о +10.1 +8.9 92 +6 +6 тепло 992.0 989.0 +9.6 0.4 0.4
ЮЗ 10
{15}
13 км н/о +10.4 +8.9 90 +6 +6 тепло 991.5 988.6
Ю 9
{14}
11 км слаб. морось с дождем н/о +9.9 +8.6 92 +6 +6 тепло 991.2 988.2
Ю 8
{14}
11 км слаб. дождь н/о +9.7 +8.5 92 +6 +6 по сезону 990.6 987.6
Ю 7 10 км слаб. морось н/о +9.8 +8.7 93 +6 +6 тепло 990.1 987.1
Ю 8 10 км в посл. час дождь н/о +10.0 +8.6 91 +6 +6 тепло 989.4 986.5
Ю 8
{13}
9000 м слаб. морось н/о +9.8 +8.4 91 +6 +6 по сезону 988.5 985.5 0.8
Ю 8 7000 м слаб. морось н/о +9.6 +8.5 93 +5 +5 тепло 987.3 984.3
Ю 8
{14}
13 км слаб. дождь н/о +9.9 +8.4 90 +6 +6 тепло 986.1 983.1
Ю 8
{13}
10 км дождь н/о +9.7 +8.1 90 +6 +6 по сезону 985.4 982.4
Ю 7 13 км слаб. морось н/о +9.1 +7.8 92 +5 +5 тепло 984.8 981.8
Ю 7 7000 м морось с дождем н/о +9.0 +8.0 93 +5 +5 тепло 983.8 980.9
Ю 7 14 км слаб. дождь н/о +9.3 +8.4 94 +5 +5 по сезону 982.9 980.0 +10.4 3
Ю 9
{14}
11 км слаб. морось с дождем н/о +9.6 +7.7 88 +5 +5 тепло 981.8 978.9
Ю 11-16
{16}
8000 м дождь н/о +9.1 +7.4 89 +4 +4 тепло 980.1 977.1
Ю 10-16
{17}
18 км в посл. час дождь н/о +9.8 +6.9 82 +5 +5 по сезону 978.0 975.0
Ю 10-15
{16}
7000 м слаб. морось н/о +8.9 +7.4 90 +4 +4 тепло 976.1 973.1
Ю 10-15
{15}
8000 м слаб. дождь н/о +9.3 +8.3 93 +4 +4 тепло 973.8 970.9
З 8
{17}
50 км слаб. дождь н/о +6.3 +4.7 89 +1 +1 по сезону 975.6 972.6 3
ЮЗ 12
{17}
50 км в посл. час дождь н/о +5.5 +3.0 84 -1 -1 по сезону 978.4 975.4
З 11
{18}
50 км н/о +4.9 +2.1 82 -2 -2 по сезону 981.1 978.1
З 9
{17}
50 км н/о +3.8 +0.8 81 -3 -3 прохладно 983.2 980.2
ЮЗ 7
{13}
50 км н/о +3.7 +1.0 83 -2 -2 по сезону 984.4 981.4
ЮЗ 7 50 км н/о +3.8 +1.4 84 -2 -2 тепло 985.2 982.2
ЮЗ 7 50 км н/о +4.1 +1.3 82 -2 -2 прохладно 985.9 982.9 +3.6 3 6.4
ЮЗ 7 40 км н/о +4.6 +1.7 81 -1 -1 по сезону 986.3 983.2
ЮЗ 8
{14}
50 км н/о +5.1 +1.7 79 -1 -1 тепло 986.3 983.3
ЮЗ 8
{15}
35 км н/о +6.2 +2.1 75 +1 +1 по сезону 986.4 983.4
ЮЗ 9
{14}
45 км н/о +7.0 +2.3 72 +2 +2 по сезону 986.8 983.8
ЮЗ 9
{14}
30 км н/о +8.2 +2.2 66 +3 +3 тепло 987.3 984.3
ЮЗ 9-14
{14}
40 км н/о +7.7 +2.2 68 +3 +3 по сезону 986.9 983.9
ЮЗ 9
{14}
30 км н/о +8.0 +2.1 66 +3 +3 по сезону 986.4 983.4
ЮЗ 7 40 км н/о +8.1 +1.9 65 +4 +4 тепло 985.9 982.9
ЮЗ 5 30 км н/о +7.6 +2.0 68 +4 +4 по сезону 985.5 982.5
ЮЗ 4 35 км н/о +7.4 +2.0 69 +4 +4 по сезону 984.8 981.8
ЮЗ 4 28 км н/о +7.1 +2.2 71 +4 +4 тепло 984.5 981.5
ЮЗ 3 23 км н/о +6.5 +2.5 76 +4 +4 по сезону 984.4 981.4 +8.3
З 4 26 км н/о +6.1 +2.4 77 +3 +3 по сезону 984.3 981.3
З 4 25 км н/о +5.6 +2.5 80 +2 +2 тепло 984.6 981.6
З 4 35 км н/о +5.6 +2.2 79 +2 +2 по сезону 985.5 982.5
З 4 29 км н/о +4.3 +1.6 83 0 0 по сезону 986.1 983.0
З 4 30 км н/о +2.6 +1.0 89 -2 -2 по сезону 987.1 984.0
З 4 35 км н/о +2.7 +1.0 89 -2 -2 прохладно 987.8 984.7
З 4 29 км н/о +2.0 +0.5 90 -3 -3 по сезону 988.3 985.3
ЮЗ 3 30 км н/о +1.5 +0.3 92 -3 -3 по сезону 988.8 985.8
З 4 35 км н/о +1.0 -0.1 92 -4 -4 холодно 989.4 986.3
ЮЗ 3 35 км н/о 0.0 -1.1 92 -5 -5 по сезону 989.9 986.8
ЮЗ 4 45 км н/о +0.9 -0.1 93 -4 -4 по сезону 990.2 987.2
ЮЗ 3 30 км н/о +0.5 -0.5 93 -4 -4 прохладно 990.7 987.6 -0.3
З 3 22 км н/о -0.2 -1.4 92 -5 -5 по сезону 991.4 988.3
З 2 13 км н/о +0.6 -0.3 94 -3 -3 по сезону 992.1 989.0
З 3 13 км н/о -0.1 -0.9 94 -5 -5 холодно 992.9 989.8
ЮЗ 3 20 км н/о +2.8 +1.4 90 -1 -1 по сезону 993.7 990.6
З 4 17 км н/о +5.1 +2.2 82 +1 +1 тепло 994.1 991.0
З 4 29 км н/о +6.8 +2.2 72 +4 +4 по сезону 994.2 991.1 0.2
З 5 22 км н/о +7.8 +1.1 63 +4 +4 по сезону 993.9 990.9
З 5 35 км н/о +7.8 +0.1 58 +5 +5 тепло 993.7 990.7
З 3 28 км н/о +7.1 +0.9 65 +4 +4 по сезону 993.8 990.8
З 2 13 км ливневой дождь н/о +6.3 +2.5 77 +5 +5 тепло 993.7 990.7
В 1 30 км в посл. час дождь н/о +4.2 +1.8 84 +4 +4 тепло 993.7 990.6
Ю 5 50 км в посл. час дождь н/о +5.4 +2.4 81 +1 +1 по сезону 993.5 990.4 +8.2 0.6
ЮЗ 2 40 км в посл. час дождь н/о +4.4 +2.3 86 +2 +2 по сезону 993.4 990.3
З 3 35 км н/о +3.9 +2.0 87 0 0 по сезону 993.6 990.5
ЮЗ 3 16 км слаб. ливневой дождь н/о +4.2 +2.8 91 +1 +1 по сезону 993.4 990.4
ЮЗ 5 9000 м слаб. морось с дождем н/о +3.9 +2.3 89 -1 -1 по сезону 993.5 990.4
З 5 35 км слаб. морось н/о +3.7 +2.5 92 -1 -1 по сезону 993.9 990.9
З 5 15 км в посл. час дождь н/о +3.6 +2.3 91 -1 -1 по сезону 994.5 991.4 0.6
З 4 30 км в посл. час дождь н/о +2.9 +1.5 90 -2 -2 по сезону 994.8 991.7
З 3 50 км н/о +2.5 +0.7 88 -1 -1 тепло 994.5 991.4
З 3 45 км н/о +1.9 +0.7 92 -3 -3 прохладно 994.8 991.8
СЗ 1 27 км н/о +1.8 +0.5 91 -0 -0 по сезону 994.5 991.4
З 2 18 км н/о +0.7 -0.1 94 -2 -2 тепло 994.2 991.1
З 1 13 км н/о +0.5 -0.1 96 -0 -0 по сезону 994.1 991.0 -0.1 0.6 1.2
Ю 2 10 км н/о -0.3 -0.9 96 -4 -4 по сезону 994.3 991.2
СЗ 1 8000 м дымка н/о -0.3 -0.8 96 -3 -3 по сезону 994.4 991.3
СЗ 1 400 м туман н/о -0.9 -1.3 97 -3 -3 холодно 994.4 991.3
З 1 400 м туман н/о -0.8 -1.1 98 -3 -3 по сезону 995.0 991.9
ЮЗ 2 700 м туман н/о +0.1 -0.1 99 -3 -3 по сезону 995.4 992.3
З 2 4200 м в посл. час туман н/о +1.0 +0.8 99 -3 -3 холодно 995.6 992.5
СЗ 2 15 км н/о +3.0 +1.6 91 -0 -0 по сезону 995.4 992.3
З 4 28 км н/о +4.5 +1.1 79 +1 +1 по сезону 995.3 992.2
СЗ 4 40 км н/о +3.9 0.0 76 -1 -1 прохладно 995.8 992.7
СЗ 4 45 км н/о +3.3 -0.5 76 -1 -1 по сезону 996.1 993.0
З 3 45 км н/о +2.8 -0.7 78 -1 -1 по сезону 996.6 993.5
СЗ 3 45 км осадки н/о +2.6 -1.1 77 -1 -1 прохладно 997.1 994.0 +4.8 0.0
СЗ 2 50 км в посл. час осадки н/о +1.3 -1.1 84 -2 -2 по сезону 997.3 994.2
З 3 27 км н/о +1.1 -1.0 86 -3 -3 по сезону 997.8 994.7
З 3 23 км н/о +0.4 -1.1 90 -4 -4 холодно 998.1 995.0
ЮЗ 2 24 км н/о -1.0 -2.1 92 -4 -4 по сезону 998.6 995.5
З 3 21 км н/о -0.6 -2.2 89 -5 -5 по сезону 999.0 995.9
З 1 19 км н/о -2.3 -3.8 89 -5 -5 холодно 999.2 996.0 0.0
З 4 26 км н/о -2.0 -3.5 89 -8 -8 холодно 999.7 996.5
З 2 30 км н/о -1.9 -3.1 91 -6 -6 по сезону 999.7 996.6
Ю 2 21 км н/о -3.0 -4.1 92 -6 -6 холодно 999.6 996.5
Ю 2 24 км н/о -3.3 -4.1 94 -8 -8 холодно 999.6 996.5
В 2 16 км н/о -2.8 -3.6 94 -6 -6 по сезону 999.0 995.8
В 2 15 км н/о -2.8 -3.8 93 -7 -7 очень
холодно
998.8 995.7 -3.5 0.0
В 3 19 км н/о -1.8 -2.7 94 -7 -7 прохладно 998.2 995.1
В 4 35 км н/о -0.5 -2.1 89 -6 -6 по сезону 997.3 994.2
В 3 45 км н/о +0.2 -1.7 87 -5 -5 холодно 996.7 993.6
ЮВ 3 2600 м сильные переохл. осадки н/о +0.3 -0.3 96 -5 -5 прохладно 996.4 993.3
В 4 1000 м сильные переохл. осадки н/о +0.3 -0.2 96 -5 -5 по сезону 995.7 992.6 2
В 4 3900 м сильн. дождь н/о +0.5 +0.1 97 -5 -5 очень
холодно
995.2 992.1 0.2 3
В 3 6000 м слаб. дождь н/о +0.6 +0.2 97 -4 -4 прохладно 994.7 991.6 2
СЗ 2 7000 м в посл. час дождь н/о +1.3 +0.5 94 -2 -2 по сезону 994.4 991.3 2
З 2 13 км н/о +1.4 +0.5 94 -2 -2 холодно 994.5 991.4 2
З 2 10 км дымка н/о +1.2 +0.4 94 -2 -2 по сезону 994.8 991.7 2
З 3 14 км н/о +1.2 +0.3 94 -3 -3 по сезону 994.9 991.8 2
З 3 35 км н/о +1.3 -0.3 89 -3 -3 холодно 995.3 992.2 +1.5 3 2
З 3 40 км н/о +1.3 -1.1 84 -3 -3 по сезону 995.7 992.6 2
СЗ 2 21 км н/о +0.5 -0.8 91 -3 -3 по сезону 996.3 993.2 2
СЗ 3 14 км н/о +0.5 -0.5 93 -4 -4 холодно 997.1 994.0 2
С 3 7000 м ливневой дождь н/о +1.0 +0.3 95 -4 -4 по сезону 998.0 994.9 2
С 3 27 км в посл. час дождь н/о +1.1 +0.2 94 -4 -4 по сезону 999.1 996.0 2
С 4 11 км дым н/о +1.3 +0.1 92 -4 -4 холодно 1000.3 997.2 0.0 2
С 4 25 км н/о +1.2 -0.2 90 -4 -4 по сезону 1001.5 998.4 1
СЗ 4 15 км н/о +0.5 -1.1 89 -5 -5 по сезону 1002.7 999.6 1
С 2 14 км н/о 0.0 -1.7 88 -4 -4 холодно 1003.7 1000.5 1
С 2 15 км н/о -0.7 -2.3 89 -5 -5 по сезону 1004.6 1001.4 2
СЗ 2 30 км н/о -1.0 -3.4 84 -5 -5 по сезону 1005.5 1002.3 2
З 3 26 км н/о -1.6 -3.8 85 -6 -6 холодно 1006.2 1003.1 -2.1 0.0 2.6 2
З 3 20 км н/о -1.6 -4.2 82 -6 -6 прохладно 1007.2 1004.0 2
З 2 13 км н/о -1.9 -3.8 87 -6 -6 по сезону 1008.0 1004.8 2
З 3 19 км н/о -1.8 -3.6 87 -7 -7 очень
холодно
1008.9 1005.7 2
З 4 23 км н/о -0.1 -2.8 82 -6 -6 прохладно 1009.6 1006.4 2
З 4 27 км н/о +1.6 -2.0 77 -3 -3 по сезону 1010.3 1007.2 2
З 4 29 км н/о +2.8 -1.4 74 -2 -2 холодно 1010.6 1007.5 2
З 4 30 км н/о +4.1 -1.2 68 -0 -0 по сезону 1010.8 1007.7 2
З 5 35 км н/о +4.7 -0.8 67 0 0 по сезону 1011.4 1008.3 2
З 5 30 км н/о +5.0 -0.7 67 +1 +1 по сезону 1012.0 1008.9 1
З 5 40 км н/о +4.4 -0.9 68 0 0 по сезону 1012.8 1009.7 2
З 4 45 км н/о +2.3 -1.1 78 -2 -2 по сезону 1013.4 1010.2 2
З 5 45 км н/о +1.9 -1.3 79 -3 -3 холодно 1014.1 1011.0 +5.1 0.2 2
З 4 45 км н/о +1.5 -1.5 80 -4 -4 прохладно 1014.8 1011.7 2
З 4 26 км н/о +1.2 -1.8 80 -4 -4 по сезону 1015.6 1012.4 2
З 4 50 км н/о +0.8 -2.2 80 -4 -4 холодно 1016.2 1013.0 2
З 3 50 км н/о -0.1 -2.8 82 -4 -4 по сезону 1016.6 1013.4 2
Ю 2 45 км н/о -0.2 -2.4 85 -3 -3 по сезону 1017.1 1013.9 2
ЮЗ 3 30 км н/о -0.8 -2.9 86 -6 -6 холодно 1017.3 1014.1 2
ЮЗ 2 30 км н/о -1.5 -3.2 88 -5 -5 по сезону 1017.6 1014.4 2
ЮЗ 1 17 км н/о -2.8 -4.1 91 -5 -5 по сезону 1017.8 1014.6 2
ЮЗ 1 13 км н/о -2.7 -3.5 94 -5 -5 холодно 1018.1 1014.9 2
З 1 10 км дымка н/о -3.0 -3.8 94 -4 -4 по сезону 1017.9 1014.7 2
штиль 0 12 км н/о -2.6 -3.3 95 -4 -4 по сезону 1018.1 1014.9 2
ЮЗ 2 15 км н/о -1.6 -2.1 96 -5 -5 холодно 1018.0 1014.9 -3.0 0.2 2
штиль 0 23 км н/о -0.4 -1.1 95 -2 -2 по сезону 1018.1 1014.9 2
ЮВ 1 21 км н/о -0.5 -1.3 94 -3 -3 тепло 1018.4 1015.2 2
ЮВ 2 28 км н/о +0.6 -0.6 92 -2 -2 прохладно 1018.0 1014.9 2
Ю 2 26 км н/о +2.2 0.0 85 -0 -0 по сезону 1018.3 1015.1 1
Ю 3 20 км слаб. ливневой дождь н/о +2.7 +0.4 85 -1 -1 тепло 1018.0 1014.9 1
Ю 4 21 км слаб. дождь н/о +3.8 +2.0 88 -1 -1 прохладно 1017.0 1013.9 0.0 1
Ю 3 27 км слаб. ливневой дождь н/о +4.6 +2.8 88 +1 +1 по сезону 1016.9 1013.8 1
Ю 3 30 км в посл. час дождь н/о +4.8 +2.8 87 +1 +1 тепло 1016.2 1013.1
Ю 5 30 км н/о +5.4 +3.2 86 +1 +1 по сезону 1014.9 1011.8
Ю 5 7000 м в посл. час дождь н/о +5.1 +3.5 89 +1 +1 по сезону 1014.6 1011.5
Ю 5 5000 м морось н/о +4.7 +3.9 95 -0 -0 тепло 1013.7 1010.6
Ю 4 3600 м сильн. морось н/о +4.8 +4.2 96 0 0 по сезону 1013.5 1010.4 +5.5 0.8
Ю 4 4000 м слаб. морось н/о +5.1 +4.5 96 +1 +1 по сезону 1012.6 1009.5
Ю 6 12 км в посл. час дождь н/о +5.4 +4.7 95 0 0 тепло 1011.7 1008.6
Ю 4 25 км н/о +5.7 +4.9 95 +2 +2 по сезону 1011.2 1008.1
Ю 3 6000 м дымка н/о +5.9 +5.3 96 +2 +2 по сезону 1010.7 1007.7
ЮЗ 2 1700 м дымка н/о +6.3 +5.9 97 +4 +4 по сезону 1010.6 1007.5 0.6
Местоположение метеостанции Лондон (Великобритания): широта 51.48 долгота -0.45 высота над уровнем моря 25 м.
В архиве по умолчанию представлена погода в Лондоне за последнюю неделю. Архивные данные за месяц целиком и за предыдущие месяцы, начиная с января 2011 года, Вы можете получить, выбрав интересующий диапазон дат из раскрывающегося списка и нажав кнопку "Найти!".
*Определитесь, кто Вы:
Внимание! Время в таблицах - всемирное. Для получения местного времени необходимо прибавить поправку, которая равна 0 ч.
Смотрите также архив погоды в соседних городах и на ближайших метеорологических станциях:
Партнеры нашего сайта:
Парфюмерия бай
парфюмерия бай
perfumer.by

     
Пояснения к столбцам:
  • Ветер - указаны скорость ветра в м/с - средняя за 10 мин, порывы в срок и между сроками (в фигурных скобках) и направление, откуда дует ветер: С - северный,
  • СВ - северо-восточный, В - восточный, ЮВ - юго-восточный, Ю - южный, ЮЗ - юго-западный, З - западный, СЗ - северо-западный.
  • Видимость - горизонтальная дальность видимости в метрах или километрах. При видимости от 1 до 10 км при отсутствии осадков обычно наблюдается дымка, при ухудшении видимости до 1 км и менее - туман. В сухую погоду видимость может ухудшаться дымом, пылью или мглою.
  • Явления - указаны атмосферные явления, наблюдавшиеся в срок или в последний час перед сроком; фигурными скобками обозначены явления, наблюдавшиеся между сроками (за 1-3 часа до срока); квадратными скобками обозначены град или гололедные отложения с указанием их диаметра в мм.
  • Облачность - указаны через наклонную черту общая и нижняя облачность в баллах и высота нижней границы облаков в метрах; квадратными скобками обозначены формы облаков: Ci - перистые, Cs - перисто-слоистые, Cc - перисто-кучевые, Ac - высококучевые, As - высокослоистые, Sc - слоисто-кучевые, Ns - слоисто-дождевые, Cu - кучевые, Cb - кучево-дождевые. Подробнее классификацию облаков см. в Атласе облаков (PDF).
  • T - Температура воздуха - температура, измеренная на высоте 2 м над землей.
  • Td - Температура точки росы - температура, при понижении до которой содержащийся в воздухе водяной пар достигнет насыщения.
  • f - Относительная влажность воздуха - влажноcть воздуха, измеренная на высоте 2 м над землей.
  • Te - Эффективная температура - температура, которую ощущает одетый по сезону человек в тени. Характеристика душности погоды. При расчете учитывается влияние влажности воздуха и скорости ветра на теплоощущения человека.
  • Tes - Эффективная температура на солнце - температура, которую ощущает человек, с поправкой на солнечный нагрев. Характеристика знойности погоды. Зависит от высоты солнца над горизонтом, облачности и скорости ветра. Ночью, в пасмурную погоду, а также при ветре 12 м/с и более поправка равна нулю.
  • P - Атмосферное давление - приведенное к уровню моря атмосферное давление.
  • Po - Атмосферное давление - измеренное на уровне метеостанции атмосферное давление.
  • Tmin - Минимальная температура - минимум температуры воздуха на высоте 2 м над землей.
  • Tmax - Максимальная температура - максимум температуры воздуха на высоте 2 м над землей.
  • R - Количество осадков - Количество выпавших осадков за период времени, мм. При наведении курсора мыши на число - период времени, за который выпало указанное количество осадков.
  • R24 - Количество осадков - Количество выпавших осадков за 24 часа, мм.
  • S - Снежный покров - Высота снежного покрова, см. При наведении курсора мыши на число - состояние снежного покрова и степень покрытия местности в баллах.